Somerville, NJ

3:23 AM EST on November 18, 2019 (GMT -0500)
Somerset

Weather History for KSMQ - September, 2019

Change the Weather History Date:

Sunday, September 15, 2019

  Actual Average Record
Temperature  
Mean Temperature 72 °F -  
Max Temperature 82 °F 77 °F 90 °F (1942)
Min Temperature 61 °F 53 °F 37 °F (1975)
Cooling Degree Days 6    
Growing Degree Days 22 (Base 50)    
Moisture  
Dew Point 61 °F    
Average Humidity 83    
Maximum Humidity 100    
Minimum Humidity 34    
Precipitation  
Precipitation 0.00 in - - ()
Sea Level Pressure  
Sea Level Pressure 30.13 in    
Wind  
Wind Speed 1 mph (NNW)    
Max Wind Speed 7 mph    
Max Gust Speed -    
Visibility 6 miles    
Events Fog    
Averages and records for this station are not official NWS values.
T = Trace of Precipitation, MM = Missing Value Source: NWS Daily Summary

Daily Weather History Graph

Daily Weather History Graph

Search for Another Location

Airport or City:

Astronomy

Sep. 15, 2019 Rise Set
Actual Time 6:39 AM EDT 7:08 PM EDT
Civil Twilight 6:11 AM EDT 7:35 PM EDT
Nautical Twilight 5:39 AM EDT 8:07 PM EDT
Astronomical Twilight 5:06 AM EDT 8:40 PM EDT
Moon 8:14 PM EDT (9/15) 7:47 AM EDT (9/15)
Length of Visible Light 13h 23m
Length of Day
12h 28m
Full, 98% of the Moon is Illuminated
Sep 15
Full
Sep 21
Last Quarter
Sep 28
New
Oct 5
First Quarter
Oct 13
Full

Hourly Weather History & Observations

Time (EDT) Temp. Heat Index Dew Point Humidity Pressure Visibility Wind Dir Wind Speed Gust Speed Precip Events Conditions
12:53 AM 68.0 °F - 66.0 °F 93% 30.15 in 6.0 mi Calm Calm - N/A   Mostly Cloudy
1:23 AM 66.9 °F - 64.9 °F 93% 30.15 in 2.5 mi Calm Calm - N/A   Scattered Clouds
1:28 AM 66.9 °F - 66.0 °F 97% 30.15 in 1.2 mi Calm Calm - N/A   Mostly Cloudy
1:37 AM 66.9 °F - 64.9 °F 93% 30.15 in 3.0 mi Calm Calm - N/A   Mostly Cloudy
1:53 AM 64.9 °F - 64.0 °F 97% 30.15 in 0.5 mi Calm Calm - N/A Fog Fog
1:59 AM 66.0 °F - 64.0 °F 93% 30.15 in 1.2 mi Calm Calm - N/A   Overcast
2:02 AM 66.0 °F - 64.9 °F 96% 30.15 in 3.0 mi Calm Calm - N/A   Overcast
2:32 AM 66.0 °F - 64.9 °F 96% 30.14 in 2.5 mi Calm Calm - N/A   Overcast
2:41 AM 64.9 °F - 64.0 °F 97% 30.14 in 5.0 mi Calm Calm - N/A   Overcast
2:47 AM 64.4 °F - 64.4 °F 100% 30.14 in 1.5 mi NW 3.5 mph - N/A   Overcast
2:53 AM 64.9 °F - 64.0 °F 97% 30.14 in 1.0 mi Calm Calm - N/A   Mist
3:04 AM 64.9 °F - 64.0 °F 97% 30.14 in 3.0 mi Calm Calm - N/A   Overcast
3:35 AM 64.9 °F - 63.0 °F 93% 30.14 in 2.5 mi Calm Calm - N/A   Overcast
3:42 AM 64.9 °F - 64.0 °F 97% 30.14 in 5.0 mi Calm Calm - N/A   Overcast
3:53 AM 64.9 °F - 64.0 °F 97% 30.14 in 7.0 mi Calm Calm - N/A   Overcast
4:13 AM 64.9 °F - 63.0 °F 93% 30.14 in 8.0 mi NNW 3.5 mph - N/A   Overcast
4:39 AM 64.9 °F - 64.0 °F 97% 30.14 in 7.0 mi Calm Calm - N/A   Overcast
4:53 AM 64.9 °F - 63.0 °F 93% 30.14 in 8.0 mi Calm Calm - N/A   Mostly Cloudy
5:53 AM 64.9 °F - 63.0 °F 93% 30.15 in 7.0 mi Calm Calm - N/A   Scattered Clouds
6:26 AM 63.0 °F - 62.1 °F 97% 30.15 in 5.0 mi Calm Calm - N/A   Partly Cloudy
6:53 AM 63.0 °F - 61.0 °F 93% 30.15 in 4.0 mi Calm Calm - N/A   Mostly Cloudy
7:02 AM 63.0 °F - 62.1 °F 97% 30.15 in 2.0 mi Calm Calm - N/A   Mostly Cloudy
7:09 AM 63.0 °F - 62.1 °F 97% 30.15 in 0.8 mi North - - N/A   Mist
7:16 AM 63.0 °F - 61.0 °F 93% 30.15 in 0.2 mi Calm Calm - N/A Fog Fog
7:26 AM 62.1 °F - 61.0 °F 96% 30.15 in 0.5 mi Calm Calm - N/A Fog Fog
7:38 AM 63.0 °F - 62.1 °F 97% 30.15 in 3.0 mi Calm Calm - N/A   Mostly Cloudy
7:53 AM 64.0 °F - 63.0 °F 96% 30.15 in 9.0 mi Calm Calm - N/A   Scattered Clouds
8:53 AM 71.1 °F - 64.9 °F 81% 30.17 in 10.0 mi Calm Calm - N/A   Clear
9:53 AM 73.9 °F - 60.1 °F 62% 30.17 in 10.0 mi NNE 5.8 mph - N/A   Partly Cloudy
10:53 AM 75.9 °F - 59.0 °F 56% 30.17 in 10.0 mi North 4.6 mph - N/A   Clear
11:53 AM 77.0 °F - 57.0 °F 50% 30.15 in 10.0 mi North 3.5 mph - N/A   Clear
12:53 PM 80.1 °F 80.1 °F 55.0 °F 42% 30.13 in 10.0 mi Variable 4.6 mph - N/A   Clear
1:53 PM 82.0 °F - 52.0 °F 35% 30.11 in 10.0 mi Variable 3.5 mph - N/A   Clear
2:53 PM 82.0 °F - 51.1 °F 34% 30.09 in 10.0 mi WNW 5.8 mph - N/A   Clear
3:53 PM 82.0 °F - 51.1 °F 34% 30.08 in 10.0 mi NW 6.9 mph - N/A   Clear
4:53 PM 82.0 °F 81.6 °F 55.9 °F 41% 30.07 in 10.0 mi Calm Calm - N/A   Clear
5:53 PM 80.1 °F 80.2 °F 55.9 °F 43% 30.08 in 10.0 mi Calm Calm - N/A   Clear
6:53 PM 71.1 °F - 59.0 °F 66% 30.06 in 10.0 mi Calm Calm - N/A   Clear
7:53 PM 68.0 °F - 61.0 °F 78% 30.07 in 10.0 mi Calm Calm - N/A   Clear
8:53 PM 64.9 °F - 62.1 °F 90% 30.07 in 10.0 mi Calm Calm - N/A   Clear
9:53 PM 63.0 °F - 61.0 °F 93% 30.07 in 10.0 mi Calm Calm - N/A   Clear
10:53 PM 61.0 °F - 59.0 °F 93% 30.07 in 8.0 mi Calm Calm - N/A   Clear
11:53 PM 61.0 °F - 59.0 °F 93% 30.07 in 9.0 mi Calm Calm - N/A   Clear